Regional Weather Roundup
Issued by NWS

Home | Current Version | Previous Version | Graphics & Text | Print | Product List | Glossary On
Versions: 1 2 3 4 5 6 7 8 9 10 11 12 13 14 15 16 17 18 19 20 21 22 23 24 25 26 27 28 29 30 31 32 33 34 35 36 37 38 39 40 41 42 43 44 45 46 47 48 49 50
000
ASUS45 KTFX 291110
RWRMT
MONTANA REGIONAL WEATHER ROUNDUP
NATIONAL WEATHER SERVICE GREAT FALLS MT
500 AM MDT FRI APR 29 2016

NOTE: "FAIR" INDICATES FEW OR NO CLOUDS BELOW 12000 FEET WITH NO
SIGNIFICANT WEATHER AND/OR OBSTRUCTIONS TO VISIBILITY.

MTZ001>007-043-291200-
WEST OF THE DIVIDE

CITY           SKY/WX    TMP DP  RH WIND       PRES   REMARKS
KALISPELL      CLOUDY    41  36  82 SW5       29.95S
MISSOULA       CLOUDY    36  33  89 N3        29.97F
BUTTE          CLOUDY    32  25  75 S3        29.93F
MULLAN PASS    PTCLDY    30  24  78 E3        29.92S
ANACONDA         N/A     28  27  93 CALM      29.95F
DEER LODGE       N/A     28  27  93 W3        29.96F
EUREKA           N/A     36  32  87 CALM      29.97F
HAMILTON         N/A     37  36  93 CALM      29.94F
LIBBY            N/A     36  34  93 SE3       29.98F
PLAINS           N/A     39  34  82 CALM      29.97F
$$

MTZ008-052>055-291200-
SOUTHWEST MONTANA

CITY           SKY/WX    TMP DP  RH WIND       PRES   REMARKS
BOZEMAN        CLOUDY    31  26  82 NW5       29.97F
DILLON         CLOUDY    33  25  72 E7        29.93S WCI  27
ENNIS          CLOUDY    32  30  93 S3        29.99S
THREE FORKS      N/A     29  29 100 CALM      29.97S
TWIN BRIDGES     N/A     35  24  64 N13       29.93F WCI  26
$$

MTZ009-010-012-014-046-048-049-054-291200-
EAST SLOPES AND CENTRAL MONTANA

CITY           SKY/WX    TMP DP  RH WIND       PRES   REMARKS
CUT BANK       CLOUDY    35  34  96 E6        30.00F WCI  30
GREAT FALLS    CLOUDY    35  33  92 CALM      29.99S
HELENA         CLOUDY    38  31  76 W5        29.97F
CHOTEAU          N/A     36  36 100 NE5       30.00F
CONRAD           N/A     36  36 100 E3        30.03S
$$

MTZ011-013-016-021-045-047-050-051-291200-
NORTH CENTRAL MONTANA

CITY           SKY/WX    TMP DP  RH WIND       PRES   REMARKS
HAVRE          CLOUDY    41  36  82 E10       30.04F
LEWISTOWN      CLOUDY    37  31  78 E3        30.02S
N BAR RANCH      N/A     32  30  93 CALM      30.04F
CHINOOK          N/A     43  36  75 E6        30.06F
$$

MTZ017>020-022>027-061-062-291200-
NORTHEAST MONTANA

CITY           SKY/WX    TMP DP  RH WIND       PRES   REMARKS
GLASGOW        CLOUDY    39  34  82 E7        30.11F
JORDAN           N/A     39  36  89 E3        30.09F
SIDNEY         PTCLDY    39  28  65 NE9       30.15F
WOLF POINT     CLOUDY    38  34  85 E3        30.15F
PLENTYWOOD       N/A     37  19  48 E7        30.17S
POPLAR           N/A     39  32  75 CALM      30.15F
SCOBEY           N/A     39  18  43 E6        30.12S
$$

MTZ028>42-056>058-291200-
SOUTHCENTRAL AND SOUTHEAST MONTANA

CITY           SKY/WX    TMP DP  RH WIND       PRES   REMARKS
BAKER          CLOUDY    38  33  82 CALM      30.12F
BILLINGS       CLOUDY    35  34  96 N6        30.02F WCI  30
LIVINGSTON     CLOUDY    34  29  82 E8        29.98S WCI  27
MILES CITY     CLOUDY    40  34  79 E5        30.09F
EKALAKA          N/A     36  31  82 SE3       30.06F
FORSYTH          N/A     39  39 100 E5        30.08F
LAUREL           N/A     35  28  76 N2        30.00F
ROUNDUP          N/A     32  29  89 CALM      29.96S
$$

REGIONAL REPORTS...DAKOTAS

CITY           SKY/WX    TMP DP  RH WIND       PRES   REMARKS
WILLISTON      CLOUDY    34  25  69 NE7       30.17F WCI  28
MINOT          CLOUDY    36  22  56 N5        30.20S
DICKINSON      CLOUDY    35  27  72 E5        30.12S
BEACH          CLOUDY    37  37 100 CALM      30.15F
CROSBY           N/A     30  21  69 CALM      30.22S
TIOGA            N/A     28  21  74 E7        30.23F WCI  21
WATFORD CITY     N/A     30  25  80 CALM      30.17S
BISMARCK       CLOUDY    36  32  85 CALM      30.17S
GRAND FORKS    CLOUDY    34  28  79 NW7       30.19S WCI  28
FARGO          PTCLDY    36  32  85 E5        30.15S
BUFFALO SD       N/A     37  34  89 NE3       30.04F
RAPID CITY     CLOUDY    36  33  89 CALM      30.11S
$$

REGIONAL REPORTS...WYOMING/IDAHO/WASHINGTON

CITY           SKY/WX    TMP DP  RH WIND       PRES   REMARKS
GILLETTE       CLOUDY    35  33  92 SE3       30.04F
SHERIDAN       CLOUDY    37  32  82 SE5       30.03F
BUFFALO WY       N/A    N/A N/A N/A MISG      30.03F
CODY           CLOUDY    34  30  86 CALM      29.98F
YELLOWSTONE LA   N/A     24  20  84 CALM      29.94S
IDAHO FALLS    CLOUDY    39  28  64 NW6       29.89R
SALMON         CLOUDY    37  32  81 CALM      29.92F
BOISE          CLOUDY    49  39  68 W9        29.90R
SPOKANE        LGT RAIN  48  40  73 S5        29.95S
$$

REGIONAL REPORTS...ALBERTA

CITY           SKY/WX    TMP DP  RH WIND       PRES   REMARKS
EDMONTON       CLEAR     45  28  53 SE12      29.94S
CALGARY        PTCLDY    37  28  70 S10       29.95F WCI  30
LETHBRIDGE     PTCLDY    30  28  93 S9G26     30.01S WCI  22
MEDICINE HAT   CLOUDY    39  36  87 CALM      30.05F
WATERTON GATE    N/A     30  28  93 E2          N/A
MILK RIVER       N/A     32  32 100 W2          N/A
ONEFOUR          N/A     37  36  93 E8          N/A  WCI  31
$$

REGIONAL REPORTS...SASKATCHEWAN

CITY           SKY/WX    TMP DP  RH WIND       PRES   REMARKS
SWIFT CURRENT  MOCLDY    30  25  80 SE8       30.11R WCI  23
REGINA         CLEAR     34  16  47 SE12      30.20S WCI  25
SASKATOON      PTCLDY    37  27  65 SE9       30.17F WCI  31
CYPRESS HILLS    N/A     34  30  86 SE3         N/A
VAL MARIE        N/A     28  27  93 NE6         N/A  WCI  22
ROCKGLEN         N/A     37  23  56 SE9         N/A  WCI  31
ASSINIBOIA       N/A     41  32  70 SE9         N/A
$$



USA.gov is the U.S. government's official web portal to all federal, state and local government web resources and services.